EW2826 Weather Reports


time (UTC)temp
C
wind
direction
speed
KPH
gust
KPH
rain 1hr
cm
rain 24hr
cm
rain mn
cm
humidity
%
barometer
mb
20260510011000 17 70 9.7 14.5 0.00 0.00 0.00 47 1027.1
20260510010001 17 89 8.0 16.1 0.00 0.00 0.00 47 1027.1
20260510005002 17 58 4.8 12.9 0.00 0.00 0.00 47 1027.0
20260510004001 17 14 6.4 12.9 0.00 0.00 0.00 48 1027.0
20260510003001 16 68 1.6 4.8 0.00 0.00 0.00 51 1027.0
20260510002023 16 63 4.8 9.7 0.00 0.00 0.00 50 1026.9
20260510001001 16 67 3.2 4.8 0.00 0.00 0.00 52 1026.8
20260510000001 15 35 3.2 8.0 0.00 0.00 0.00 54 1026.9
20260509235001 14 16 1.6 3.2 0.00 0.00 0.00 57 1027.0
20260509234001 13 37 1.6 3.2 0.00 0.00 0.00 58 1027.0
20260509233022 13 39 1.6 3.2 0.00 0.00 0.00 57 1027.0
20260509232022 13 44 1.6 4.8 0.00 0.00 0.00 58 1026.8
20260509231002 13 84 4.8 11.3 0.00 0.00 0.00 58 1026.5
20260509230001 13 155 3.2 12.9 0.00 0.00 0.00 58 1026.5
20260509225001 13 59 1.6 4.8 0.00 0.00 0.00 57 1026.6
20260509224001 13 181 3.2 8.0 0.00 0.00 0.00 56 1026.6
20260509223001 13 24 3.2 8.0 0.00 0.00 0.00 56 1026.6
20260509222001 13 99 3.2 9.7 0.00 0.00 0.00 55 1026.5
20260509221001 14 74 3.2 4.8 0.00 0.00 0.00 54 1026.4
20260509220001 15 50 3.2 4.8 0.00 0.00 0.00 53 1026.2
20260509215001 15 22 3.2 4.8 0.00 0.00 0.00 53 1026.2
20260509214001 15 31 4.8 9.7 0.00 0.00 0.00 52 1026.1
20260509213001 15 20 6.4 12.9 0.00 0.00 0.00 52 1026.1
20260509211001 15 24 8.0 12.9 0.00 0.00 0.00 51 1026.0
20260509210001 15 31 6.4 12.9 0.00 0.00 0.00 51 1026.0
20260509205022 15 24 3.2 9.7 0.00 0.00 0.00 51 1026.0
20260509204001 15 32 6.4 14.5 0.00 0.00 0.00 51 1025.8
20260509203023 15 17 11.3 20.9 0.00 0.00 0.00 50 1025.5
20260509202001 15 25 6.4 19.3 0.00 0.00 0.00 50 1025.4
20260509201001 15 30 6.4 12.9 0.00 0.00 0.00 50 1025.4
20260509200001 15 12 6.4 14.5 0.00 0.00 0.00 50 1025.5
20260509195001 15 5 6.4 12.9 0.00 0.00 0.00 50 1025.4
20260509194001 15 44 3.2 9.7 0.00 0.00 0.00 49 1025.5
20260509193001 15 8 4.8 9.7 0.00 0.00 0.00 49 1025.4
20260509192002 15 28 8.0 14.5 0.00 0.00 0.00 48 1025.3
20260509191001 16 67 3.2 8.0 0.00 0.00 0.00 48 1025.3
20260509185001 16 34 4.8 9.7 0.00 0.00 0.00 47 1025.3
20260509184001 16 35 4.8 9.7 0.00 0.00 0.00 48 1025.3
20260509183001 16 6 8.0 12.9 0.00 0.00 0.00 48 1025.3
20260509182001 15 10 3.2 8.0 0.00 0.00 0.00 49 1025.2
20260509181001 15 53 4.8 16.1 0.00 0.00 0.00 51 1025.2
20260509180001 13 216 1.6 8.0 0.00 0.00 0.00 53 1025.4
20260509175001 13 161 3.2 8.0 0.00 0.00 0.00 54 1025.5
20260509174001 13 237 3.2 8.0 0.00 0.00 0.00 53 1025.5
20260509173002 13 198 3.2 9.7 0.00 0.00 0.00 52 1025.5
20260509172022 13 146 1.6 9.7 0.00 0.00 0.00 52 1025.5
20260509171022 13 100 1.6 4.8 0.00 0.00 0.00 53 1025.5
20260509170001 13 237 0.0 4.8 0.00 0.00 0.00 51 1025.5
20260509165001 13 217 1.6 4.8 0.00 0.00 0.00 53 1025.5
20260509164001 13 206 3.2 8.0 0.00 0.00 0.00 53 1025.6
20260509163001 13 210 3.2 8.0 0.00 0.00 0.00 52 1025.7
20260509162125 13 235 1.6 8.0 0.00 0.00 0.00 51 1025.7
20260509161022 14 211 3.2 9.7 0.00 0.00 0.00 49 1025.7
20260509160001 14 205 1.6 1.6 0.00 0.00 0.00 48 1025.7
20260509155007 15 118 1.6 3.2 0.00 0.00 0.00 47 1025.8
20260509154001 15 84 3.2 8.0 0.00 0.00 0.00 47 1025.9
20260509153001 15 77 1.6 4.8 0.00 0.00 0.00 47 1025.9
20260509152002 15 91 3.2 11.3 0.00 0.00 0.00 46 1026.0
20260509151001 15 83 4.8 8.0 0.00 0.00 0.00 47 1026.0
20260509150001 15 93 3.2 8.0 0.00 0.00 0.00 46 1026.0
20260509145001 15 94 3.2 8.0 0.00 0.00 0.00 46 1026.1
20260509144001 15 86 1.6 3.2 0.00 0.00 0.00 45 1026.2
20260509143001 15 96 3.2 4.8 0.00 0.00 0.00 45 1026.1
20260509142001 16 86 3.2 4.8 0.00 0.00 0.00 44 1026.2
20260509141001 16 84 3.2 8.0 0.00 0.00 0.00 43 1026.2
20260509140001 16 84 3.2 8.0 0.00 0.00 0.00 43 1026.2
20260509135001 16 81 4.8 9.7 0.00 0.00 0.00 42 1026.1
20260509134022 16 87 4.8 9.7 0.00 0.00 0.00 42 1026.1
20260509133022 16 91 3.2 8.0 0.00 0.00 0.00 42 1026.1
20260509132002 16 92 4.8 8.0 0.00 0.00 0.00 41 1026.0
20260509131001 17 82 4.8 8.0 0.00 0.00 0.00 40 1026.0
20260509130001 17 93 3.2 9.7 0.00 0.00 0.00 40 1025.9
20260509125001 17 88 3.2 9.7 0.00 0.00 0.00 40 1025.9
20260509124001 17 23 1.6 3.2 0.00 0.00 0.00 40 1025.8
20260509123001 17 87 3.2 4.8 0.00 0.00 0.00 40 1025.8
20260509122001 16 81 1.6 3.2 0.00 0.00 0.00 40 1025.8
20260509121002 16 68 1.6 3.2 0.00 0.00 0.00 40 1025.7
20260509120002 16 108 3.2 4.8 0.00 0.00 0.00 41 1025.6
20260509115001 16 85 4.8 8.0 0.00 0.00 0.00 42 1025.6
20260509114001 16 99 3.2 8.0 0.00 0.00 0.00 43 1025.6
20260509113001 16 113 1.6 3.2 0.00 0.00 0.00 43 1025.6
20260509112001 16 105 1.6 3.2 0.00 0.00 0.00 43 1025.6
20260509111002 17 109 3.2 4.8 0.00 0.00 0.00 42 1025.6
20260509110022 17 106 1.6 1.6 0.00 0.00 0.00 42 1025.6
20260509105001 17 92 3.2 8.0 0.00 0.00 0.00 41 1025.6
20260509104002 17 92 3.2 4.8 0.00 0.00 0.00 42 1025.6
20260509102022 18 83 3.2 3.2 0.00 0.00 0.00 42 1025.4
20260509101001 18 105 1.6 3.2 0.00 0.00 0.00 40 1025.4
20260509100001 19 104 1.6 3.2 0.00 0.00 0.00 39 1025.3
20260509095022 20 99 1.6 1.6 0.00 0.00 0.00 38 1025.3
20260509094003 20 99 3.2 3.2 0.00 0.00 0.00 37 1025.2
20260509093002 20 112 1.6 3.2 0.00 0.00 0.00 36 1025.2
20260509092001 21 93 3.2 4.8 0.00 0.00 0.00 35 1025.2
20260509091001 21 90 3.2 4.8 0.00 0.00 0.00 34 1025.2
20260509090022 21 82 4.8 8.0 0.00 0.00 0.00 33 1025.2
20260509085022 21 82 4.8 8.0 0.00 0.00 0.00 33 1025.1
20260509084022 22 80 3.2 4.8 0.00 0.00 0.00 32 1025.1
20260509083001 22 87 3.2 9.7 0.00 0.00 0.00 32 1025.0
20260509082002 22 75 4.8 9.7 0.00 0.00 0.00 32 1025.0
20260509081022 22 64 3.2 4.8 0.00 0.00 0.00 33 1025.1
20260509080001 22 59 6.4 11.3 0.00 0.00 0.00 31 1025.0
20260509075001 23 11 4.8 8.0 0.00 0.00 0.00 31 1025.0
20260509074001 23 77 4.8 9.7 0.00 0.00 0.00 30 1024.8
20260509073002 22 17 4.8 9.7 0.00 0.00 0.00 32 1024.8
20260509072023 22 73 4.8 9.7 0.00 0.00 0.00 32 1024.7
20260509071001 22 63 6.4 14.5 0.00 0.00 0.00 32 1024.7
20260509070023 22 75 12.9 24.1 0.00 0.00 0.00 31 1024.5
20260509065001 23 67 4.8 9.7 0.00 0.00 0.00 31 1024.5
20260509064001 22 88 11.3 22.5 0.00 0.00 0.00 32 1024.4
20260509063002 23 58 6.4 11.3 0.00 0.00 0.00 33 1024.5
20260509062001 22 71 4.8 11.3 0.00 0.00 0.00 34 1024.4
20260509061022 22 9 8.0 14.5 0.00 0.00 0.00 33 1024.4
20260509060022 22 35 9.7 24.1 0.00 0.00 0.00 33 1024.6
20260509055002 22 85 8.0 12.9 0.00 0.00 0.00 33 1024.7
20260509054001 22 84 6.4 11.3 0.00 0.00 0.00 34 1024.8
20260509053002 22 77 6.4 12.9 0.00 0.00 0.00 34 1024.9
20260509052001 22 96 6.4 11.3 0.00 0.00 0.00 35 1025.0
20260509051002 22 58 9.7 19.3 0.00 0.00 0.00 35 1025.2
20260509050001 22 104 8.0 14.5 0.00 0.00 0.00 37 1025.3
20260509045022 22 94 4.8 11.3 0.00 0.00 0.00 37 1025.5
20260509044001 21 86 8.0 16.1 0.00 0.00 0.00 38 1025.6
20260509043023 21 82 11.3 16.1 0.00 0.00 0.00 38 1026.0
20260509042001 21 103 8.0 14.5 0.00 0.00 0.00 37 1026.2
20260509041022 21 23 6.4 11.3 0.00 0.00 0.00 37 1026.5
20260509040022 21 2 6.4 12.9 0.00 0.00 0.00 38 1026.6
20260509035001 20 31 6.4 16.1 0.00 0.00 0.00 39 1026.9
20260509034023 20 25 8.0 14.5 0.00 0.00 0.00 38 1027.1
20260509032023 20 37 1.6 4.8 0.00 0.00 0.00 39 1027.6
20260509031001 20 46 4.8 8.0 0.00 0.00 0.00 40 1027.9
20260509030023 20 47 6.4 11.3 0.00 0.00 0.00 40 1027.9
20260509025001 20 43 4.8 11.3 0.00 0.00 0.00 43 1028.0
20260509024001 19 29 6.4 9.7 0.00 0.00 0.00 42 1028.2
20260509023022 18 78 8.0 16.1 0.00 0.00 0.00 44 1028.2
20260509022002 18 24 4.8 11.3 0.00 0.00 0.00 45 1028.4
20260509021001 18 11 6.4 14.5 0.00 0.00 0.00 46 1028.4
20260509020001 17 65 4.8 12.9 0.00 0.00 0.00 47 1028.5
20260509015001 17 28 11.3 22.5 0.00 0.00 0.00 46 1028.7
20260509014001 17 25 6.4 16.1 0.00 0.00 0.00 47 1028.7
20260509013002 16 4 6.4 12.9 0.00 0.00 0.00 48 1028.8
20260509012002 16 28 8.0 16.1 0.00 0.00 0.00 49 1028.8